Location: Stillwell
(40.4602°N, 82.0928°W)
Time: 01:30:38
(UTC-04:00)

Daily predictions for brighter satellites

Satellite Brightness Start Highest point End
(mag) Time Altitude Azimuth Time Altitude Azimuth Time Altitude Azimuth
NOSS 3-1 (A) 4.0 00:03:35 10° NW 00:11:16 83° WSW 00:12:57 61° SSE
Gbstr 26 Del rocket 4.5 00:07:10 10° WNW 00:10:03 32° W 00:10:03 32° W
Cosmos 1503 Rocket 4.2 00:11:38 10° NNW 00:16:23 65° WNW 00:16:23 65° WNW
Cosmos 1892 Rocket 4.5 00:13:40 10° N 00:16:48 46° N 00:16:48 46° N
Cosmos 1400 Rocket 4.4 00:19:55 35° NW 00:19:55 35° NW 00:22:58 10° N
Meteor 1-23 Rocket 4.2 00:13:36 10° NNW 00:18:55 79° NW 00:18:55 79° NW
Cosmos 1943 Rocket 3.1 00:21:41 37° ENE 00:21:41 37° ENE 00:25:25 10° NE
Terra 3.4 00:23:26 26° W 00:23:26 26° W 00:27:14 10° NW
ISS 0.0 00:26:16 10° NNW 00:27:37 12° N 00:27:59 12° NNE
Cosmos 1025 Rocket 4.5 00:25:48 10° NNW 00:28:54 34° WNW 00:28:54 34° WNW
ATLAS 2AS CENTAUR R/B 3.3 00:24:21 10° NNW 00:32:24 60° NE 00:34:23 47° E
Meteor 1-5 Rocket 4.3 00:37:52 66° NNW 00:37:52 66° NNW 00:42:29 10° N
NOSS 3-1 (C) 4.5 00:32:17 10° NW 00:39:35 47° WSW 00:40:23 45° SW
Cosmos 1455 Rocket 4.4 00:44:16 36° NNW 00:44:16 36° NNW 00:47:00 10° N
USA 234 3.4 00:36:14 10° NE 00:42:45 72° NW 00:45:22 39° WSW
Cosmos 1605 Rocket 4.1 00:43:43 65° WSW 00:44:07 66° W 00:50:31 10° N
Cosmos 2061 Rocket 4.3 00:51:28 55° ENE 00:51:28 55° ENE 00:57:17 10° NNE
Cosmos 44 Rocket 4.2 00:49:20 10° NNW 00:53:22 47° NNE 00:53:22 47° NNE
ALOS 2 4.0 00:56:39 37° N 00:56:39 37° N 00:59:21 10° N
Cosmos 1802 Rocket 4.4 00:56:59 52° ENE 00:56:59 52° ENE 01:02:29 10° NNE
Cosmos 2173 Rocket 4.2 00:58:53 62° ENE 00:58:53 62° ENE 01:04:41 10° NNE
Lacrosse 5 4.1 00:58:55 10° W 01:02:57 23° NNW 01:07:00 10° NNE
Cosmos 1818 4.4 01:12:45 45° WNW 01:12:53 45° NW 01:18:09 10° NNE
Cosmos 44 4.5 01:11:53 10° NNW 01:16:11 39° NNE 01:16:11 39° NNE
H-2A R/B 4.0 01:13:56 10° N 01:16:44 37° N 01:16:44 37° N
Cosmos 2098 Rocket 4.5 01:31:20 59° E 01:31:32 59° E 01:39:00 10° NNE
CZ-2C R/B 3.2 01:33:05 10° NNE 01:37:09 54° NNE 01:37:09 54° NNE
Tsikada Rocket 4.3 01:32:44 10° N 01:38:51 60° ENE 01:38:51 60° ENE
Cosmos 2369 Rocket 4.4 01:37:37 13° W 01:40:17 17° NW 01:43:58 10° N
Cosmos 1656 Rocket 4.1 01:49:07 58° NNW 01:49:07 58° NNW 01:53:58 10° NNE
Cosmos 2227 Rocket 3.3 01:50:57 10° N 01:56:12 37° ENE 01:56:52 36° ENE
Cosmos 2219 4.0 01:52:17 10° NNW 01:56:14 43° NW 01:56:14 43° NW
NOSS 3-3 (A) 4.2 02:01:38 63° WNW 02:01:54 64° NW 02:08:36 10° NNE
NOSS 3-3 (C) 4.2 02:01:44 64° WNW 02:01:58 64° NW 02:08:40 10° NNE
Cosmos 1943 Rocket 3.8 02:03:11 24° WNW 02:04:02 25° NW 02:08:37 10° N
Cosmos 2297 Rocket 3.2 02:11:40 10° N 02:16:58 39° ENE 02:18:02 35° E
Cosmos 2278 4.1 02:19:10 55° ENE 02:19:10 55° ENE 02:23:53 10° NNE
Cosmos 2233 Rocket 3.9 02:20:31 80° NE 02:20:31 80° NE 02:26:23 10° N
Cosmos 2369 4.2 02:21:59 52° ENE 02:21:59 52° ENE 02:26:42 10° NNE
ATLAS 2AS CENTAUR R/B 3.9 02:16:06 10° NW 02:21:47 31° W 02:21:47 31° W
Meteor 1-15 Rocket 4.3 02:26:07 77° N 02:26:07 77° N 02:31:35 10° N
Cosmos 2228 4.5 02:31:40 35° N 02:31:40 35° N 02:34:12 10° N
Cosmos 1656 4.2 02:44:01 48° E 02:44:01 48° E 02:49:08 10° NE
BREEZE-M DEB (TANK) 4.3 02:47:17 10° WNW 02:52:24 62° SSW 03:15:14 10° SE
BREEZE-M DEB (TANK) 3.2 02:48:04 10° WNW 02:58:46 74° WNW 02:58:46 74° WNW
ATLAS CENTAUR R/B 2.1 03:03:04 66° N 03:03:04 66° N 03:07:32 10° NNE
Cosmos 1072 Rocket 4.4 03:02:05 74° S 03:02:44 89° W 03:09:11 10° N
Cosmos 1814 Rocket 4.0 03:06:30 83° NE 03:06:30 83° NE 03:11:42 10° NNE
IRS-P3 4.1 03:02:40 10° NNE 03:08:03 77° ESE 03:08:06 77° ESE
Cosmos 1891 Rocket 4.4 03:08:04 63° SE 03:08:53 72° E 03:15:01 10° NNE
SeaSat 1 2.7 03:11:46 60° NW 03:11:46 60° NW 03:15:51 10° NNW
NOSS 2-1 (D) 4.4 03:14:08 43° NNW 03:14:08 43° NNW 03:17:43 10° NNE
NOSS 2-1 (C) 4.4 03:15:33 43° NNW 03:15:33 43° NNW 03:19:10 10° NNE
CBERS-1 4.1 03:10:29 10° NNE 03:15:36 64° ESE 03:15:48 63° ESE
Cosmos 1812 Rocket 4.4 03:18:27 43° NW 03:18:27 43° NW 03:21:50 10° N
Resurs 1-4 Rocket 3.9 03:17:41 10° NE 03:21:48 23° E 03:23:57 18° SE
Cosmos 1697 Rocket 2.6 03:21:51 71° SSE 03:22:20 77° ESE 03:28:01 10° NNE
Cosmos 1707 3.9 03:18:33 10° N 03:21:07 39° NNW 03:21:07 39° NNW
Cosmos 990 Rocket 4.0 03:17:19 10° NNW 03:22:36 75° ENE 03:23:20 64° SE
Cosmos 2034 Rocket 3.9 03:25:17 64° SSW 03:26:22 86° W 03:32:34 10° N
BREEZE-M R/B 4.0 03:20:53 10° WNW 03:27:35 77° SW 03:34:01 10° SE
Cosmos 468 Rocket 4.3 03:28:03 51° WNW 03:28:04 51° WNW 03:33:07 10° N
Nadezhda 4 Rocket 4.2 03:22:27 10° N 03:28:39 67° E 03:31:08 37° SSE
SL-08 R/B 3.2 03:30:09 74° NW 03:30:09 74° NW 03:34:28 10° NNW
NOSS 2-1 (E) 4.5 03:30:15 38° NW 03:30:15 38° NW 03:34:22 10° NNE
Cosmos 1980 Rocket 2.5 03:31:15 48° SE 03:32:15 55° ESE 03:37:47 10° NNE
Cosmos 2227 Rocket 3.4 03:35:12 10° NW 03:38:39 27° WNW 03:38:39 27° WNW
Cosmos 1953 3.5 03:41:06 34° ESE 03:41:41 35° E 03:45:25 10° NNE
Cosmos 2322 Rocket 3.7 03:43:46 20° SE 03:46:18 27° ESE 03:50:57 10° NE
NOSS 3-4 (A) 3.8 03:39:46 10° NW 03:46:41 60° WSW 03:49:38 36° S
NOSS 3-4 (C) 3.8 03:39:51 10° NW 03:46:48 60° WSW 03:49:54 35° S
Meteor 2-12 Rocket 4.3 03:45:57 52° SSW 03:47:35 86° W 03:53:41 10° N
NPP 3.8 03:43:29 10° N 03:48:45 55° WNW 03:49:32 50° WSW
SL-16 R/B 3.0 03:45:21 13° SSE 03:50:42 58° ENE 03:56:44 10° N
Cosmos 836 Rocket 4.4 03:53:04 56° S 03:54:10 83° ESE 03:59:28 10° NNE
Cosmos 841 Rocket 3.5 03:56:06 56° WSW 03:57:02 68° WNW 04:02:18 10° NNE
Cosmos 1763 Rocket 3.7 03:59:24 49° WSW 04:00:17 55° WNW 04:05:22 10° N
Cosmos 1378 3.4 03:56:36 10° NNW 03:59:52 61° NW 03:59:52 61° NW
Cosmos 2297 Rocket 3.3 03:56:01 10° NW 03:59:47 28° W 03:59:47 28° W
Cosmos 1076 Rocket 3.3 03:59:32 10° NNW 04:03:51 71° W 04:04:05 69° WSW
Geosat 4.0 04:00:05 10° NNE 04:05:07 75° WNW 04:06:24 50° SW
Cosmos 1125 Rocket 3.6 04:00:01 10° NNW 04:05:15 75° ENE 04:09:12 18° SSE
Cosmos 1937 Rocket 4.5 04:00:47 10° NW 04:04:29 30° W 04:04:29 30° W
Cosmos 1634 Rocket 4.0 04:06:30 31° S 04:09:46 80° E 04:16:05 10° N
DELTA 2 R/B (1) 4.3 04:12:49 32° S 04:13:50 35° SSE 04:18:52 10° E
CZ-3A R/B 3.7 04:07:23 26° SW 04:14:53 77° NW 04:19:40 10° NE
ERS-2 2.8 04:12:52 10° N 04:16:20 41° WNW 04:16:20 41° WNW
Cosmos 540 Rocket 3.5 04:16:37 35° S 04:18:46 73° ESE 04:23:56 10° NNE
Cosmos 1092 Rocket 4.0 04:15:28 10° NNW 04:21:43 65° W 04:25:11 28° SSW
SL-16 R/B 2.8 04:18:33 24° S 04:21:45 52° ESE 04:27:14 10° NNE
Milstar 3 Cent rocket 3.4 04:21:57 24° S 04:21:57 24° S 04:27:04 10° SE
Aureole 1 Rocket 4.5 04:19:01 24° S 04:22:52 65° ESE 04:30:31 10° NNE
Cosmos 1470 4.0 04:21:21 20° SSE 04:23:38 38° E 04:27:21 10° NNE
RESURS DK-1 2.6 04:20:18 10° NNW 04:24:26 68° ENE 04:28:32 10° SSE
Cosmos 1500 Rocket 4.1 04:20:08 10° N 04:24:27 55° E 04:28:12 13° SSE
Cosmos 2360 4.2 04:23:34 36° SW 04:26:00 77° WNW 04:31:46 10° NNE
CZ-3 R/B 4.3 04:05:11 24° SW 04:26:42 45° S 04:36:52 10° ESE
ARIANE 5 R/B 2.6 04:22:14 10° N 04:27:22 67° WNW 04:29:33 35° SW
Cosmos 2263 Rocket 4.0 04:24:06 10° N 04:29:07 33° ENE 04:34:04 10° ESE
Cosmos 1743 Rocket 3.4 04:26:21 10° N 04:30:43 84° W 04:33:03 27° S
Cosmos 1627 Rocket 4.4 04:24:34 10° N 04:30:53 87° W 04:36:33 13° S
CZ-2D R/B 2.1 04:27:46 10° N 04:33:14 80° WNW 04:36:12 28° SSW
SME Rocket 4.4 04:29:38 24° S 04:33:27 60° W 04:42:20 10° NNW
USA 161 3.7 04:35:07 16° NW 04:35:07 16° NW 04:35:54 10° NW
Cosmos-2242 3.2 04:33:18 40° SW 04:34:23 51° W 04:38:34 10° N
Cosmos 1544 2.9 04:38:05 40° SSW 04:39:16 82° W 04:42:56 10° N
ATLAS CENTAUR R/B 4.1 04:39:48 10° WNW 04:42:27 14° NW 04:45:04 10° N
CZ-4B R/B 4.2 04:40:08 10° NNE 04:45:22 43° E 04:50:28 10° S
GEOS 3 Rocket 3.8 04:40:36 10° SE 04:45:48 77° NE 04:50:59 10° NNW
Cosmos 332 Rocket 3.8 04:43:36 30° SW 04:45:53 65° WNW 04:50:43 10° NNE
Cosmos 1733 3.4 04:48:32 19° S 04:51:11 67° E 04:54:58 10° NNE
UNKNOWN OBJECT B 2.7 04:47:35 10° N 04:51:26 64° WNW 04:53:13 29° SSW
Okean O Rocket 2.0 04:48:34 10° NNE 04:52:57 61° E 04:56:54 12° S
Lacrosse 5 rocket 4.1 04:52:09 10° N 04:54:30 16° NNE 04:56:52 10° ENE
UNK 4.3 04:52:50 24° SSW 04:55:02 39° W 04:59:26 10° NNW
Cosmos 1805 4.4 04:58:52 23° WSW 04:59:56 27° WNW 05:03:18 10° NNW
Cosmos 2279 Rocket 4.0 04:55:03 15° SSW 05:00:16 72° W 05:06:33 10° N
EO 1 Del DPAF 3.9 04:59:47 25° SW 05:01:20 36° W 05:04:56 10° NNW
IRS-1D 4.3 04:57:04 10° N 05:01:31 34° WNW 05:04:12 20° WSW
Resurs 1-4 Rocket 2.6 04:56:51 10° N 05:01:48 43° WNW 05:05:02 20° SW
Thor Agena Rocket 4.3 04:57:09 10° SSE 05:02:02 54° ENE 05:06:58 10° N
Cosmos 1538 Rocket 4.1 04:57:49 16° SSW 05:02:10 80° ESE 05:07:31 10° NNE
Cosmos 1461 3.4 04:59:26 10° NW 05:03:08 34° WSW 05:06:43 10° S
Cosmos 371 Rocket 3.3 05:00:57 21° SSW 05:04:04 64° WNW 05:08:52 10° NNE
ARGOS Delta rocket 4.4 04:59:27 10° NNE 05:04:25 59° E 05:09:04 10° S
CZ-2D R/B 3.6 05:01:06 10° N 05:05:27 64° WNW 05:08:45 17° SSW
DELTA 2 R/B (2) 3.6 05:05:36 34° WSW 05:06:23 51° S 05:08:21 10° ESE
CZ-2C R/B 3.7 05:03:50 10° SSE 05:08:31 87° W 05:13:08 10° NNW
CZ-4B R/B 3.1 05:08:36 10° NNE 05:12:26 62° ESE 05:16:04 10° S
Cosmos 1980 Rocket 3.7 05:13:01 13° W 05:16:36 23° NW 05:21:02 10° N
Cosmos 2360 Rocket 2.8 05:11:15 10° S 05:16:44 57° ESE 05:22:15 10° NNE
Cosmos 1328 3.8 05:13:11 10° N 05:17:15 85° W 05:21:16 10° S
Cosmos 1842 Rocket 4.3 05:15:15 18° SW 05:18:04 36° WNW 05:22:13 10° N
Cosmos 1674 3.1 05:14:41 10° NNW 05:18:14 39° W 05:21:25 12° SSW
Cosmos 1953 4.2 05:16:53 14° W 05:18:16 16° WNW 05:20:51 10° NNW
Cosmos 372 Rocket 4.5 05:15:54 10° NW 05:20:32 36° WSW 05:25:10 10° SSW
GRACE-1 3.9 05:20:07 10° S 05:22:59 87° E 05:25:53 10° N
GRACE-2 3.9 05:20:32 10° S 05:23:25 87° E 05:26:18 10° N
Cosmos 1805 Rocket 3.8 05:21:37 10° N 05:25:58 71° E 05:30:19 10° SSE
Cosmos 2266 Rocket 4.1 05:21:00 10° N 05:27:13 81° E 05:33:29 10° S
Cosmos 1346 3.4 05:26:39 10° N 05:29:41 68° E 05:32:41 10° SSE
Cosmos 2322 Rocket 2.8 05:25:36 14° SW 05:30:06 41° WNW 05:35:24 10° N
Cosmos 2151 3.1 05:26:36 10° NNW 05:30:48 53° W 05:34:59 10° S
CZ-4B DEB 4.2 05:26:30 10° NNE 05:32:04 80° WNW 05:37:33 10° SSW
SL-16 R/B 3.7 05:30:27 11° SW 05:34:41 21° W 05:39:17 10° NW
Sich 1 3.8 05:30:49 10° N 05:35:04 55° E 05:39:20 10° SSE
Meteor 1-11 4.2 05:33:58 10° NNW 05:39:36 79° W 05:45:17 10° S
CZ-3 Stage 3 4.3 05:11:48 10° W 05:42:07 42° SW 05:48:16 10° SE
Okean-O 2.9 05:39:22 10° NNE 05:43:48 72° ESE 05:48:13 10° S
Meteor 2-1 Rocket 4.2 05:39:14 10° SSW 05:44:52 81° W 05:50:27 10° N
Cosmos 1703 4.2 05:42:13 10° N 05:46:08 53° E 05:50:01 10° SSE
USA 116 3.8 05:43:06 10° SSE 05:46:19 65° ENE 05:49:53 10° N
GPS 2-04 Rocket1 4.5 05:44:16 10° WSW 05:46:30 14° SSW 05:48:41 10° S
Cosmos 1437 Rocket 3.8 05:47:03 10° S 05:50:42 47° E 05:54:28 10° NNE
Cosmos 1328 Rocket 4.5 05:48:25 10° S 05:52:43 53° E 05:57:03 10° NNE
Lacrosse 4 Rocket 4.2 05:50:59 10° SE 05:53:15 14° ESE 05:55:33 10° ENE
Cosmos 1666 Rocket 3.5 05:50:04 10° N 05:54:28 77° W 05:58:47 10° S
Cosmos 2219 Rocket 4.2 05:51:31 10° SSE 05:56:11 28° ESE 06:00:51 10° NE
